Terminal Aerodrome Forecast
Issued by NWS Topeka, KS

Home | Current Version | Previous Version | Graphics & Text | Print | Product List | Glossary On
Versions: 1 2 3 4 5 6 7 8 9 10 11 12 13 14 15 16 17 18 19 20 21 22 23
000
FTUS43 KTOP 171735
TAFTOP
TAF
KTOP 171735Z 1718/1818 08008KT P6SM VCSH BKN008 OVC040
     FM180000 09005KT P6SM VCTS BKN010 BKN040CB
     FM180900 13005KT 3SM -SHRA VCTS BKN005 OVC015CB=

USA.gov is the U.S. government's official web portal to all federal, state and local government web resources and services.